Pitt Meadows, British Columbia

1:48 PM PDT on August 29, 2016 (GMT -0700)
Pitt Meadows

Weather History for CWMM - March, 2013

Change the Weather History Date:

Sunday, March 3, 2013

  Actual Average (CYXX) Record (CYXX)
Temperature  
Mean Temperature 40 °F -  
Max Temperature 49 °F 47 °F 60 °F (2005)
Min Temperature 30 °F 32 °F 28 °F (2002)
Degree Days  
Heating Degree Days 26    
Moisture  
Dew Point 33 °F    
Average Humidity 73    
Maximum Humidity 99    
Minimum Humidity 40    
Precipitation  
Precipitation 0.00 in - - ()
Sea Level Pressure  
Sea Level Pressure 30.23 in    
Wind  
Wind Speed 3 mph ()    
Max Wind Speed 6 mph    
Max Gust Speed -    
Averages and records for this station are not official NWS values.
T = Trace of Precipitation, MM = Missing Value Source: Averaged Metar Reports

Daily Weather History Graph

Daily Weather History Graph

Search for Another Location

Airport or City:

Trip Planner

Search our weather history database for the weather conditions in past years. The results will help you decide how hot, cold, wet, or windy it might be!

Date:

Astronomy

Mar. 03, 2013 Rise Set
Actual Time 6:48 AM PST 5:57 PM PST
Civil Twilight 6:16 AM PST 6:29 PM PST
Nautical Twilight 5:39 AM PST 7:06 PM PST
Astronomical Twilight 5:02 AM PST 7:43 PM PST
Moon 12:16 AM PST (3/3) 9:32 AM PST (3/3)
Length of Visible Light 12h 13m
Length of Day
11h 09m
Waning Gibbous, 62% of the Moon is Illuminated
Mar 3
Waning Gibbous
Mar 4
Last Quarter
Mar 11
New
Mar 19
First Quarter
Mar 27
Full

Hourly Weather History & Observations

Time (PST) Temp. Windchill Dew Point Humidity Pressure Visibility Wind Dir Wind Speed Gust Speed Precip Events Conditions
12:00 AM 40.8 °F 36.9 °F 34.0 °F 77% 30.11 in - SW 5.8 mph - N/A   Unknown
1:00 AM 40.6 °F 37.5 °F 34.2 °F 78% 30.13 in - SSW 4.6 mph - N/A   Unknown
2:00 AM 38.8 °F 36.5 °F 34.3 °F 84% 30.14 in - SSW 3.5 mph - N/A   Unknown
3:00 AM 39.0 °F 36.8 °F 33.1 °F 79% 30.15 in - SW 3.5 mph - N/A   Unknown
4:00 AM 37 °F - 32 °F 76% 30.16 in - SSW 3.5 mph - -  
4:00 AM 37.4 °F 34.9 °F 31.8 °F 80% 30.16 in - SSW 3.5 mph - N/A   Unknown
5:00 AM 34.5 °F 31.6 °F 31.8 °F 90% 30.17 in - NNE 3.5 mph - N/A   Unknown
6:00 AM 31.5 °F - 31.1 °F 99% 30.19 in - WNW 2.3 mph - N/A   Unknown
7:00 AM 31.1 °F - 30.0 °F 96% 30.20 in - WNW 2.3 mph - N/A   Unknown
8:00 AM 33.8 °F - 31.3 °F 90% 30.22 in - Calm Calm - N/A   Unknown
9:00 AM 39.4 °F - 35.2 °F 85% 30.22 in - Calm Calm - N/A   Unknown
10:00 AM 43 °F - 35 °F 63% 30.23 in - East 4.6 mph - -  
10:00 AM 42.8 °F 40.1 °F 34.7 °F 73% 30.23 in - East 4.6 mph - N/A   Unknown
11:00 AM 44.2 °F 41.8 °F 31.3 °F 60% 30.24 in - ESE 4.6 mph - N/A   Unknown
12:00 PM 46.0 °F 44.8 °F 31.5 °F 57% 30.24 in - SE 3.5 mph - N/A   Unknown
1:00 PM 48.7 °F - 32.9 °F 54% 30.24 in - South 3.5 mph - N/A   Unknown
2:00 PM 48.6 °F - 32.9 °F 55% 30.24 in - South 3.5 mph - N/A   Unknown
3:00 PM 49.1 °F - 31.8 °F 51% 30.24 in - South 2.3 mph - N/A   Unknown
4:00 PM 48 °F - 31 °F 40% 30.25 in - SW 3.5 mph - -  
4:00 PM 48.4 °F - 31.3 °F 52% 30.25 in - SW 3.5 mph - N/A   Unknown
5:00 PM 48.2 °F - 32.0 °F 54% 30.26 in - South 2.3 mph - N/A   Unknown
6:00 PM 45.0 °F - 31.3 °F 59% 30.26 in - SSW 2.3 mph - N/A   Unknown
7:00 PM 41.0 °F 39.0 °F 31.5 °F 69% 30.28 in - SSE 3.5 mph - N/A   Unknown
8:00 PM 39.2 °F - 33.4 °F 80% 30.29 in - ESE 2.3 mph - N/A   Unknown
9:00 PM 38.1 °F 35.7 °F 33.6 °F 84% 30.30 in - NE 3.5 mph - N/A   Unknown
10:00 PM 36 °F - 33 °F 86% 30.31 in - East 1.2 mph - -  
10:00 PM 36.0 °F - 33.3 °F 90% 30.31 in - East 1.2 mph - N/A   Unknown
11:00 PM 34.2 °F - 31.6 °F 90% 30.32 in - Calm Calm - N/A   Unknown